{"data":{"norad_id":65603,"epoch":"2026-05-25T04:19:33.993120Z","epoch_age_seconds":55502,"freshness":"FRESH","line1":"1 65603U 25207M   26145.18025455  .00004071  00000+0  28594-3 0  9996","line2":"2 65603  97.4462 213.7326 0002335 145.3997 214.7383 15.05661152 39775","mean_motion":15.05661152,"eccentricity":0.0002335,"inclination_deg":97.4462,"raan_deg":213.7326,"arg_perigee_deg":145.3997,"mean_anomaly_deg":214.7383,"bstar":0.00028594,"rev_number":3977,"period_min":95.639048539389,"perigee_km":547.85934873935,"apogee_km":551.0945444524,"semimajor_km":6927.6139465959,"source":"CELESTRAK","updated_at":"2026-05-25T13:38:20.854301Z"}}